Location: Harwich
(41.7160°N, 69.9939°W)
Time: 09:45:49
(UTC+02:00)

A-11 Canister half - Pass Details

Date: 26 February 2024
Orbit: 1513 x 1686 km, 47.2° (Epoch: 24 April)

Event Time Altitude Azimuth Distance (km) Brightness Sun altitude
Exits shadow 09:12:45 65° 313° (NW) 1,806 9.1 -35.2°
Maximum altitude 09:13:53 69° 348° (NNW) 1,759 9.1 -35.1°
Drops below altitude 10° 09:23:45 10° 72° (ENE) 3,851 11.9 -33.3°
Sets 09:26:52 0° 75° (ENE) 4,814 12.7 -32.8°
